Time,TemperatureF,DewpointF,PressureIn,WindDirection,WindDirectionDegrees,WindSpeedMPH,WindSpeedGustMPH,Humidity,HourlyPrecipIn,Conditions,Clouds,dailyrainin,SoftwareType,DateUTC
2014-04-18 00:01:00,73.5,73.5,30.03,ENE,59,3.0,5.0,100,0.00,,---,0.53,VWS V14.01,2014-04-18 04:01:00,
2014-04-18 00:02:00,73.5,73.5,30.03,ENE,59,0.0,5.0,100,0.00,,---,0.53,VWS V14.01,2014-04-18 04:02:00,
2014-04-18 00:03:00,73.5,73.5,30.03,ENE,59,0.0,5.0,100,0.00,,---,0.53,VWS V14.01,2014-04-18 04:03:00,
2014-04-18 00:07:00,73.5,73.5,30.03,ENE,59,4.0,5.0,100,0.00,,---,0.00,VWS V14.01,2014-04-18 04:07:00,
2014-04-18 00:12:00,73.5,73.5,30.03,ENE,59,3.0,6.0,100,0.00,,---,0.00,VWS V14.01,2014-04-18 04:12:00,
2014-04-18 00:17:00,73.5,73.5,30.03,ENE,59,3.0,6.0,100,0.00,,---,0.00,VWS V14.01,2014-04-18 04:17:00,
2014-04-18 00:22:00,73.5,73.5,30.02,ENE,59,1.0,6.0,100,0.00,,---,0.00,VWS V14.01,2014-04-18 04:22:00,
2014-04-18 00:27:00,73.5,73.5,30.02,ENE,59,2.0,6.0,100,0.00,,---,0.00,VWS V14.01,2014-04-18 04:27:00,
2014-04-18 00:32:00,73.5,73.5,30.02,ENE,59,3.0,6.0,100,0.00,,---,0.00,VWS V14.01,2014-04-18 04:32:00,
2014-04-18 00:37:00,73.5,73.5,30.02,ENE,59,2.0,2.0,100,0.00,,---,0.00,VWS V14.01,2014-04-18 04:37:00,
2014-04-18 00:42:00,73.7,73.7,30.02,ENE,59,4.0,4.0,100,0.00,,---,0.00,VWS V14.01,2014-04-18 04:42:00,
2014-04-18 00:47:00,73.7,73.7,30.02,ENE,59,0.0,4.0,100,0.02,,---,0.02,VWS V14.01,2014-04-18 04:47:00,
2014-04-18 00:52:00,73.9,73.9,30.02,ENE,59,2.0,6.0,100,0.05,,---,0.05,VWS V14.01,2014-04-18 04:52:00,
2014-04-18 00:57:00,73.9,73.9,30.02,ENE,59,0.0,6.0,100,0.07,,---,0.07,VWS V14.01,2014-04-18 04:57:00,
2014-04-18 01:03:00,73.9,73.9,30.02,ENE,59,0.0,6.0,100,0.07,,---,0.07,VWS V14.01,2014-04-18 05:03:00,
2014-04-18 01:08:00,73.7,73.7,30.00,ENE,59,2.0,2.0,100,0.07,,---,0.07,VWS V14.01,2014-04-18 05:08:00,
2014-04-18 01:13:00,73.7,73.7,30.00,ENE,59,1.0,2.0,100,0.07,,---,0.07,VWS V14.01,2014-04-18 05:13:00,
2014-04-18 01:18:00,73.7,73.7,30.00,ENE,59,0.0,3.0,100,0.07,,---,0.07,VWS V14.01,2014-04-18 05:18:00,
2014-04-18 01:23:00,73.7,73.7,30.00,ENE,59,2.0,5.0,100,0.07,,---,0.07,VWS V14.01,2014-04-18 05:23:00,
2014-04-18 01:28:00,73.5,73.5,30.00,ENE,59,4.0,5.0,100,0.07,,---,0.07,VWS V14.01,2014-04-18 05:28:00,
2014-04-18 01:33:00,73.5,73.5,30.00,ENE,59,2.0,5.0,100,0.07,,---,0.07,VWS V14.01,2014-04-18 05:33:00,
2014-04-18 01:38:00,73.5,73.5,30.00,ENE,60,4.0,4.0,100,0.07,,---,0.07,VWS V14.01,2014-04-18 05:38:00,
2014-04-18 01:43:00,73.3,73.3,30.00,ENE,69,2.0,6.0,100,0.07,,---,0.07,VWS V14.01,2014-04-18 05:43:00,
2014-04-18 01:48:00,73.2,73.2,30.00,ENE,65,3.0,7.0,100,0.07,,---,0.07,VWS V14.01,2014-04-18 05:48:00,
2014-04-18 01:53:00,73.0,73.0,30.00,ENE,64,4.0,7.0,100,0.07,,---,0.07,VWS V14.01,2014-04-18 05:53:00,
2014-04-18 01:58:00,72.8,72.8,30.00,ENE,64,0.0,7.0,100,0.07,,---,0.07,VWS V14.01,2014-04-18 05:58:00,
2014-04-18 02:03:00,72.7,72.7,30.00,ENE,64,0.0,7.0,100,0.07,,---,0.07,VWS V14.01,2014-04-18 06:03:00,
2014-04-18 02:08:00,72.5,72.5,29.99,ENE,64,3.0,3.0,100,0.00,,---,0.07,VWS V14.01,2014-04-18 06:08:00,
2014-04-18 02:13:00,72.3,72.3,29.99,ENE,64,0.0,3.0,100,0.00,,---,0.07,VWS V14.01,2014-04-18 06:13:00,
2014-04-18 02:18:00,72.1,72.1,29.99,ENE,64,0.0,3.0,100,0.00,,---,0.07,VWS V14.01,2014-04-18 06:18:00,
2014-04-18 02:23:00,72.1,72.1,29.98,ENE,64,2.0,3.0,100,0.00,,---,0.07,VWS V14.01,2014-04-18 06:23:00,
2014-04-18 02:28:00,72.0,72.0,29.98,ENE,64,0.0,3.0,100,0.00,,---,0.07,VWS V14.01,2014-04-18 06:28:00,
2014-04-18 02:33:00,72.0,72.0,29.98,ENE,64,0.0,3.0,100,0.00,,---,0.07,VWS V14.01,2014-04-18 06:33:00,
2014-04-18 02:39:00,72.0,72.0,29.98,ENE,64,0.0,2.0,100,0.00,,---,0.07,VWS V14.01,2014-04-18 06:39:00,
2014-04-18 02:44:00,71.8,71.8,29.98,ENE,64,0.0,3.0,100,0.00,,---,0.07,VWS V14.01,2014-04-18 06:44:00,
2014-04-18 02:49:00,71.8,71.8,29.98,ENE,64,1.0,3.0,100,0.00,,---,0.07,VWS V14.01,2014-04-18 06:49:00,
2014-04-18 02:54:00,71.8,71.8,29.97,ENE,64,0.0,3.0,100,0.00,,---,0.07,VWS V14.01,2014-04-18 06:54:00,
2014-04-18 02:59:00,71.8,71.8,29.97,ENE,64,0.0,3.0,100,0.00,,---,0.07,VWS V14.01,2014-04-18 06:59:00,
2014-04-18 03:05:00,71.8,71.8,29.97,ENE,64,0.0,3.0,100,0.00,,---,0.07,VWS V14.01,2014-04-18 07:05:00,
2014-04-18 03:10:00,71.8,71.8,29.97,ENE,64,0.0,0.0,100,0.00,,---,0.07,VWS V14.01,2014-04-18 07:10:00,
2014-04-18 03:15:00,71.8,71.8,29.97,ENE,64,0.0,0.0,100,0.00,,---,0.07,VWS V14.01,2014-04-18 07:15:00,
2014-04-18 03:20:00,71.8,71.8,29.97,ENE,64,0.0,0.0,100,0.00,,---,0.07,VWS V14.01,2014-04-18 07:20:00,
2014-04-18 03:25:00,71.8,71.8,29.97,ENE,64,0.0,0.0,100,0.00,,---,0.07,VWS V14.01,2014-04-18 07:25:00,
2014-04-18 03:30:00,71.8,71.8,29.97,ENE,64,0.0,0.0,100,0.00,,---,0.07,VWS V14.01,2014-04-18 07:30:00,
2014-04-18 03:35:00,71.6,71.6,29.97,ENE,64,0.0,0.0,100,0.00,,---,0.07,VWS V14.01,2014-04-18 07:35:00,
2014-04-18 03:40:00,71.6,71.6,29.96,ENE,64,0.0,0.0,100,0.00,,---,0.07,VWS V14.01,2014-04-18 07:40:00,
2014-04-18 03:45:00,71.8,71.8,29.96,ENE,64,0.0,0.0,100,0.00,,---,0.07,VWS V14.01,2014-04-18 07:45:00,
2014-04-18 03:50:00,71.8,71.8,29.96,ENE,64,0.0,1.0,100,0.00,,---,0.07,VWS V14.01,2014-04-18 07:50:00,
2014-04-18 03:55:00,72.0,72.0,29.96,ENE,64,0.0,2.0,100,0.00,,---,0.07,VWS V14.01,2014-04-18 07:55:00,
2014-04-18 04:00:00,72.0,72.0,29.96,ENE,64,0.0,2.0,100,0.02,,---,0.09,VWS V14.01,2014-04-18 08:00:00,
2014-04-18 04:05:00,72.1,72.1,29.96,ENE,64,0.0,2.0,100,0.06,,---,0.13,VWS V14.01,2014-04-18 08:05:00,
2014-04-18 04:10:00,72.3,72.3,29.96,ENE,64,0.0,1.0,100,0.06,,---,0.13,VWS V14.01,2014-04-18 08:10:00,
2014-04-18 04:15:00,72.3,72.3,29.96,ENE,64,0.0,1.0,100,0.06,,---,0.13,VWS V14.01,2014-04-18 08:15:00,
2014-04-18 04:20:00,72.5,72.5,29.96,ENE,64,0.0,1.0,100,0.06,,---,0.13,VWS V14.01,2014-04-18 08:20:00,
2014-04-18 04:25:00,72.5,72.5,29.95,ENE,64,0.0,1.0,100,0.06,,---,0.13,VWS V14.01,2014-04-18 08:25:00,
2014-04-18 04:30:00,72.5,72.5,29.95,ENE,64,0.0,1.0,100,0.06,,---,0.13,VWS V14.01,2014-04-18 08:30:00,
2014-04-18 04:35:00,72.5,72.5,29.95,ENE,64,0.0,1.0,100,0.06,,---,0.13,VWS V14.01,2014-04-18 08:35:00,
2014-04-18 04:40:00,72.5,72.5,29.94,ENE,64,0.0,0.0,100,0.06,,---,0.13,VWS V14.01,2014-04-18 08:40:00,
2014-04-18 04:45:00,72.5,72.5,29.94,ENE,64,0.0,0.0,100,0.06,,---,0.13,VWS V14.01,2014-04-18 08:45:00,
2014-04-18 04:50:00,72.5,72.5,29.94,ENE,64,0.0,0.0,100,0.06,,---,0.13,VWS V14.01,2014-04-18 08:50:00,
2014-04-18 04:56:00,72.5,72.5,29.95,ENE,64,0.0,0.0,100,0.06,,---,0.13,VWS V14.01,2014-04-18 08:56:00,
2014-04-18 05:01:00,72.5,72.5,29.95,ENE,64,0.0,0.0,100,0.06,,---,0.13,VWS V14.01,2014-04-18 09:01:00,
2014-04-18 05:06:00,72.5,72.5,29.95,ENE,64,1.0,3.0,100,0.06,,---,0.13,VWS V14.01,2014-04-18 09:06:00,
2014-04-18 05:11:00,72.7,72.7,29.95,ENE,64,2.0,6.0,100,0.00,,---,0.13,VWS V14.01,2014-04-18 09:11:00,
2014-04-18 05:16:00,72.7,72.7,29.95,ENE,64,2.0,6.0,100,0.00,,---,0.13,VWS V14.01,2014-04-18 09:16:00,
2014-04-18 05:21:00,72.5,72.5,29.94,ENE,64,2.0,6.0,100,0.00,,---,0.13,VWS V14.01,2014-04-18 09:21:00,
2014-04-18 05:26:00,72.5,72.5,29.94,ENE,64,1.0,6.0,100,0.00,,---,0.13,VWS V14.01,2014-04-18 09:26:00,
2014-04-18 05:31:00,72.3,72.3,29.94,ENE,64,0.0,6.0,100,0.00,,---,0.13,VWS V14.01,2014-04-18 09:31:00,
2014-04-18 05:36:00,72.3,72.3,29.94,ENE,64,1.0,6.0,100,0.00,,---,0.13,VWS V14.01,2014-04-18 09:36:00,
2014-04-18 05:41:00,72.3,72.3,29.94,ENE,64,0.0,1.0,100,0.00,,---,0.13,VWS V14.01,2014-04-18 09:41:00,
2014-04-18 05:46:00,72.1,72.1,29.94,ENE,64,1.0,3.0,100,0.00,,---,0.13,VWS V14.01,2014-04-18 09:46:00,
2014-04-18 05:51:00,72.1,72.1,29.93,ENE,64,0.0,3.0,100,0.00,,---,0.13,VWS V14.01,2014-04-18 09:51:00,
2014-04-18 05:57:00,72.1,72.1,29.93,ENE,64,1.0,3.0,100,0.00,,---,0.13,VWS V14.01,2014-04-18 09:57:00,
2014-04-18 06:02:00,72.1,72.1,29.93,ENE,64,1.0,3.0,100,0.00,,---,0.13,VWS V14.01,2014-04-18 10:02:00,
2014-04-18 06:07:00,72.1,72.1,29.94,ENE,64,2.0,3.0,100,0.00,,---,0.13,VWS V14.01,2014-04-18 10:07:00,
2014-04-18 06:12:00,72.1,72.1,29.94,ENE,64,0.0,2.0,100,0.00,,---,0.13,VWS V14.01,2014-04-18 10:12:00,
2014-04-18 06:17:00,72.3,72.3,29.94,ENE,64,0.0,3.0,100,0.00,,---,0.13,VWS V14.01,2014-04-18 10:17:00,
2014-04-18 06:22:00,72.3,72.3,29.94,ENE,64,0.0,3.0,100,0.00,,---,0.13,VWS V14.01,2014-04-18 10:22:00,
2014-04-18 06:27:00,72.3,72.3,29.94,ENE,64,0.0,3.0,100,0.00,,---,0.13,VWS V14.01,2014-04-18 10:27:00,
2014-04-18 06:32:00,72.1,72.1,29.94,ENE,64,0.0,3.0,100,0.00,,---,0.13,VWS V14.01,2014-04-18 10:32:00,
2014-04-18 06:37:00,72.1,72.1,29.94,ENE,64,0.0,3.0,100,0.00,,---,0.13,VWS V14.01,2014-04-18 10:37:00,
2014-04-18 06:42:00,72.1,72.1,29.94,ENE,64,0.0,0.0,100,0.00,,---,0.13,VWS V14.01,2014-04-18 10:42:00,
2014-04-18 06:47:00,72.1,72.1,29.94,ENE,64,1.0,2.0,100,0.00,,---,0.13,VWS V14.01,2014-04-18 10:47:00,
2014-04-18 06:52:00,72.0,72.0,29.94,ENE,64,3.0,6.0,100,0.00,,---,0.13,VWS V14.01,2014-04-18 10:52:00,
2014-04-18 06:57:00,72.0,72.0,29.94,ENE,64,0.0,6.0,100,0.00,,---,0.13,VWS V14.01,2014-04-18 10:57:00,
2014-04-18 07:02:00,72.0,72.0,29.94,ENE,64,0.0,6.0,100,0.01,,---,0.14,VWS V14.01,2014-04-18 11:02:00,
2014-04-18 07:07:00,72.0,72.0,29.94,ENE,64,0.0,2.0,100,0.01,,---,0.14,VWS V14.01,2014-04-18 11:07:00,
2014-04-18 07:12:00,72.1,72.1,29.94,ENE,64,3.0,3.0,100,0.01,,---,0.14,VWS V14.01,2014-04-18 11:12:00,
2014-04-18 07:17:00,72.3,72.3,29.94,ENE,64,3.0,4.0,100,0.01,,---,0.14,VWS V14.01,2014-04-18 11:17:00,
2014-04-18 07:22:00,72.5,72.5,29.95,ENE,65,2.0,4.0,100,0.01,,---,0.14,VWS V14.01,2014-04-18 11:22:00,
2014-04-18 07:27:00,72.7,72.7,29.95,ENE,65,0.0,4.0,100,0.01,,---,0.14,VWS V14.01,2014-04-18 11:27:00,
2014-04-18 07:33:00,72.8,72.8,29.95,ENE,65,0.0,4.0,100,0.01,,---,0.14,VWS V14.01,2014-04-18 11:33:00,
2014-04-18 07:38:00,73.0,73.0,29.97,ENE,65,1.0,3.0,100,0.01,,---,0.14,VWS V14.01,2014-04-18 11:38:00,
2014-04-18 07:43:00,73.0,73.0,29.97,ENE,69,0.0,5.0,100,0.01,,---,0.14,VWS V14.01,2014-04-18 11:43:00,
2014-04-18 07:48:00,73.2,73.2,29.97,ENE,69,2.0,5.0,100,0.01,,---,0.14,VWS V14.01,2014-04-18 11:48:00,
2014-04-18 07:53:00,73.3,73.3,29.98,ENE,69,0.0,5.0,100,0.01,,---,0.14,VWS V14.01,2014-04-18 11:53:00,
2014-04-18 07:58:00,73.5,73.5,29.98,ENE,69,2.0,5.0,100,0.01,,---,0.14,VWS V14.01,2014-04-18 11:58:00,
2014-04-18 08:03:00,73.5,73.5,29.98,ENE,69,0.0,5.0,100,0.01,,---,0.14,VWS V14.01,2014-04-18 12:03:00,
2014-04-18 08:08:00,73.5,73.5,29.99,ENE,69,4.0,4.0,100,0.00,,---,0.14,VWS V14.01,2014-04-18 12:08:00,
2014-04-18 08:13:00,73.5,73.5,29.99,ENE,71,2.0,5.0,100,0.00,,---,0.14,VWS V14.01,2014-04-18 12:13:00,
2014-04-18 08:18:00,73.7,73.7,29.99,ENE,76,1.0,6.0,100,0.00,,---,0.14,VWS V14.01,2014-04-18 12:18:00,
2014-04-18 08:23:00,73.7,73.7,29.99,ENE,70,3.0,6.0,100,0.00,,---,0.14,VWS V14.01,2014-04-18 12:23:00,
2014-04-18 08:28:00,73.9,73.9,29.99,ENE,74,4.0,6.0,100,0.00,,---,0.14,VWS V14.01,2014-04-18 12:28:00,
2014-04-18 08:33:00,74.0,74.0,29.99,East,81,0.0,6.0,100,0.00,,---,0.14,VWS V14.01,2014-04-18 12:33:00,
2014-04-18 08:38:00,74.0,74.0,29.99,ESE,115,0.0,4.0,100,0.00,,---,0.14,VWS V14.01,2014-04-18 12:38:00,
2014-04-18 08:43:00,74.4,74.4,29.99,ESE,122,6.0,6.0,100,0.00,,---,0.14,VWS V14.01,2014-04-18 12:43:00,
2014-04-18 08:48:00,74.6,74.6,29.99,ESE,111,3.0,6.0,100,0.00,,---,0.14,VWS V14.01,2014-04-18 12:48:00,
2014-04-18 08:53:00,75.1,75.1,29.99,ESE,113,0.0,6.0,100,0.00,,---,0.14,VWS V14.01,2014-04-18 12:53:00,
2014-04-18 08:58:00,75.6,75.6,29.99,ESE,115,2.0,6.0,100,0.00,,---,0.14,VWS V14.01,2014-04-18 12:58:00,
2014-04-18 09:03:00,76.0,75.4,29.99,ESE,114,5.0,6.0,98,0.00,,---,0.14,VWS V14.01,2014-04-18 13:03:00,
2014-04-18 09:08:00,76.7,75.2,29.99,SE,135,4.0,4.0,95,0.00,,---,0.14,VWS V14.01,2014-04-18 13:08:00,
2014-04-18 09:13:00,77.0,74.5,29.99,ESE,109,3.0,8.0,92,0.00,,---,0.14,VWS V14.01,2014-04-18 13:13:00,
2014-04-18 09:18:00,77.6,74.1,29.99,ESE,105,2.0,11.0,89,0.00,,---,0.14,VWS V14.01,2014-04-18 13:18:00,
2014-04-18 09:24:00,77.9,74.1,29.99,SE,136,0.0,11.0,88,0.00,,---,0.14,VWS V14.01,2014-04-18 13:24:00,
2014-04-18 09:29:00,78.5,74.0,29.99,SE,144,6.0,12.0,86,0.00,,---,0.14,VWS V14.01,2014-04-18 13:29:00,
2014-04-18 09:34:00,78.8,73.9,29.99,ESE,108,2.0,12.0,85,0.00,,---,0.14,VWS V14.01,2014-04-18 13:34:00,
2014-04-18 09:39:00,79.2,74.3,29.98,SE,140,1.0,4.0,85,0.00,,---,0.14,VWS V14.01,2014-04-18 13:39:00,
2014-04-18 09:44:00,79.2,73.6,29.98,SE,138,10.0,10.0,83,0.00,,---,0.14,VWS V14.01,2014-04-18 13:44:00,
2014-04-18 09:49:00,79.0,72.7,29.98,SE,126,0.0,11.0,81,0.00,,---,0.14,VWS V14.01,2014-04-18 13:49:00,
2014-04-18 09:54:00,79.2,71.8,29.97,SE,126,5.0,11.0,78,0.00,,---,0.14,VWS V14.01,2014-04-18 13:54:00,
2014-04-18 09:59:00,79.6,71.4,29.97,SE,140,9.0,11.0,76,0.00,,---,0.14,VWS V14.01,2014-04-18 13:59:00,
2014-04-18 10:04:00,79.9,71.7,29.97,SE,132,3.0,11.0,76,0.00,,---,0.14,VWS V14.01,2014-04-18 14:04:00,
2014-04-18 10:09:00,80.1,71.5,29.97,SE,142,10.0,10.0,75,0.00,,---,0.14,VWS V14.01,2014-04-18 14:09:00,
2014-04-18 10:14:00,80.1,71.1,29.97,East,101,7.0,12.0,74,0.00,,---,0.14,VWS V14.01,2014-04-18 14:14:00,
2014-04-18 10:19:00,80.5,72.6,29.97,ESE,123,3.0,12.0,77,0.00,,---,0.14,VWS V14.01,2014-04-18 14:19:00,
2014-04-18 10:24:00,80.7,72.4,29.97,SE,128,6.0,12.0,76,0.00,,---,0.14,VWS V14.01,2014-04-18 14:24:00,
2014-04-18 10:29:00,80.9,72.2,29.97,SE,128,3.0,12.0,75,0.00,,---,0.14,VWS V14.01,2014-04-18 14:29:00,
2014-04-18 10:34:00,81.2,72.5,29.97,SE,125,0.0,12.0,75,0.00,,---,0.14,VWS V14.01,2014-04-18 14:34:00,
2014-04-18 10:39:00,81.6,72.9,29.97,ESE,108,3.0,6.0,75,0.00,,---,0.14,VWS V14.01,2014-04-18 14:39:00,
2014-04-18 10:44:00,82.0,72.9,29.97,ESE,123,5.0,6.0,74,0.00,,---,0.14,VWS V14.01,2014-04-18 14:44:00,
2014-04-18 10:49:00,82.2,73.1,29.97,ESE,103,4.0,6.0,74,0.00,,---,0.14,VWS V14.01,2014-04-18 14:49:00,
2014-04-18 10:54:00,82.2,72.7,29.98,SSW,192,6.0,6.0,73,0.00,,---,0.14,VWS V14.01,2014-04-18 14:54:00,
2014-04-18 10:59:00,81.8,71.9,29.98,SE,130,5.0,10.0,72,0.00,,---,0.14,VWS V14.01,2014-04-18 14:59:00,
2014-04-18 11:04:00,82.0,71.7,29.98,SE,136,3.0,10.0,71,0.00,,---,0.14,VWS V14.01,2014-04-18 15:04:00,
2014-04-18 11:10:00,82.0,71.7,29.99,East,98,4.0,7.0,71,0.00,,---,0.14,VWS V14.01,2014-04-18 15:10:00,
2014-04-18 11:15:00,82.0,72.5,29.99,ESE,115,2.0,7.0,73,0.00,,---,0.14,VWS V14.01,2014-04-18 15:15:00,
2014-04-18 11:20:00,82.2,72.3,29.99,ESE,116,0.0,10.0,72,0.00,,---,0.14,VWS V14.01,2014-04-18 15:20:00,
2014-04-18 11:25:00,82.6,72.2,29.99,SE,130,7.0,11.0,71,0.00,,---,0.14,VWS V14.01,2014-04-18 15:25:00,
2014-04-18 11:30:00,83.0,73.1,29.99,SE,139,3.0,11.0,72,0.00,,---,0.14,VWS V14.01,2014-04-18 15:30:00,
2014-04-18 11:35:00,83.2,72.4,29.99,SE,136,0.0,11.0,70,0.00,,---,0.14,VWS V14.01,2014-04-18 15:35:00,
2014-04-18 11:40:00,83.4,72.2,29.99,ESE,108,1.0,4.0,69,0.00,,---,0.14,VWS V14.01,2014-04-18 15:40:00,
2014-04-18 11:45:00,83.2,71.6,29.99,SE,133,6.0,9.0,68,0.00,,---,0.14,VWS V14.01,2014-04-18 15:45:00,
2014-04-18 11:50:00,83.2,71.6,29.99,SE,129,4.0,9.0,68,0.00,,---,0.14,VWS V14.01,2014-04-18 15:50:00,
2014-04-18 11:55:00,83.2,72.0,29.98,SE,144,4.0,9.0,69,0.00,,---,0.14,VWS V14.01,2014-04-18 15:55:00,
2014-04-18 12:00:00,84.0,73.2,29.98,SE,130,5.0,9.0,70,0.00,,---,0.14,VWS V14.01,2014-04-18 16:00:00,
2014-04-18 12:05:00,84.1,72.0,29.98,SE,128,2.0,9.0,67,0.00,,---,0.14,VWS V14.01,2014-04-18 16:05:00,
2014-04-18 12:10:00,84.5,72.8,29.98,SSE,158,5.0,7.0,68,0.00,,---,0.14,VWS V14.01,2014-04-18 16:10:00,
2014-04-18 12:15:00,84.9,72.7,29.98,SE,132,2.0,9.0,67,0.00,,---,0.14,VWS V14.01,2014-04-18 16:15:00,
2014-04-18 12:20:00,85.1,72.5,29.98,South,180,5.0,9.0,66,0.00,,---,0.14,VWS V14.01,2014-04-18 16:20:00,
2014-04-18 12:25:00,84.9,72.3,29.97,SE,128,5.0,9.0,66,0.00,,---,0.14,VWS V14.01,2014-04-18 16:25:00,
2014-04-18 12:30:00,84.9,73.2,29.97,SE,146,5.0,9.0,68,0.00,,---,0.14,VWS V14.01,2014-04-18 16:30:00,
2014-04-18 12:35:00,84.5,71.4,29.97,SE,139,7.0,9.0,65,0.00,,---,0.14,VWS V14.01,2014-04-18 16:35:00,
2014-04-18 12:40:00,84.3,71.7,29.97,SE,125,2.0,6.0,66,0.00,,---,0.14,VWS V14.01,2014-04-18 16:40:00,
2014-04-18 12:46:00,84.3,72.2,29.97,East,88,2.0,9.0,67,0.00,,---,0.14,VWS V14.01,2014-04-18 16:46:00,
2014-04-18 12:51:00,84.7,72.5,29.97,ESE,121,1.0,9.0,67,0.00,,---,0.14,VWS V14.01,2014-04-18 16:51:00,
2014-04-18 12:56:00,85.1,72.5,29.97,SE,132,7.0,9.0,66,0.00,,---,0.14,VWS V14.01,2014-04-18 16:56:00,
2014-04-18 13:01:00,85.5,71.5,29.97,ESE,107,2.0,9.0,63,0.00,,---,0.14,VWS V14.01,2014-04-18 17:01:00,
2014-04-18 13:06:00,85.5,70.5,29.96,SE,132,6.0,12.0,61,0.00,,---,0.14,VWS V14.01,2014-04-18 17:06:00,
2014-04-18 13:11:00,85.5,71.5,29.96,SE,126,2.0,12.0,63,0.00,,---,0.14,VWS V14.01,2014-04-18 17:11:00,
2014-04-18 13:16:00,85.3,72.2,29.96,ESE,110,2.0,12.0,65,0.00,,---,0.14,VWS V14.01,2014-04-18 17:16:00,
2014-04-18 13:21:00,85.3,72.2,29.96,South,176,4.0,12.0,65,0.00,,---,0.14,VWS V14.01,2014-04-18 17:21:00,
2014-04-18 13:26:00,85.3,71.8,29.96,SE,145,1.0,13.0,64,0.00,,---,0.14,VWS V14.01,2014-04-18 17:26:00,
2014-04-18 13:31:00,85.3,72.2,29.96,SSE,148,4.0,13.0,65,0.00,,---,0.14,VWS V14.01,2014-04-18 17:31:00,
2014-04-18 13:36:00,85.3,71.8,29.95,ESE,123,1.0,13.0,64,0.00,,---,0.14,VWS V14.01,2014-04-18 17:36:00,
2014-04-18 13:41:00,85.3,72.2,29.95,SE,129,2.0,9.0,65,0.00,,---,0.14,VWS V14.01,2014-04-18 17:41:00,
2014-04-18 13:46:00,85.5,72.4,29.95,SE,137,5.0,9.0,65,0.00,,---,0.14,VWS V14.01,2014-04-18 17:46:00,
2014-04-18 13:51:00,86.3,74.1,29.95,ESE,117,0.0,9.0,67,0.00,,---,0.14,VWS V14.01,2014-04-18 17:51:00,
2014-04-18 13:56:00,87.0,72.4,29.95,SE,145,1.0,9.0,62,0.00,,---,0.14,VWS V14.01,2014-04-18 17:56:00,
2014-04-18 14:01:00,86.7,72.6,29.95,SSW,198,2.0,12.0,63,0.00,,---,0.14,VWS V14.01,2014-04-18 18:01:00,
2014-04-18 14:06:00,86.5,72.9,29.95,SSE,149,3.0,12.0,64,0.00,,---,0.14,VWS V14.01,2014-04-18 18:06:00,
2014-04-18 14:11:00,86.5,72.9,29.95,ESE,119,6.0,9.0,64,0.00,,---,0.14,VWS V14.01,2014-04-18 18:11:00,
2014-04-18 14:16:00,87.0,73.8,29.95,SE,130,6.0,9.0,65,0.00,,---,0.14,VWS V14.01,2014-04-18 18:16:00,
2014-04-18 14:21:00,87.2,73.1,29.94,SE,143,9.0,9.0,63,0.00,,---,0.14,VWS V14.01,2014-04-18 18:21:00,
2014-04-18 14:26:00,87.6,73.5,29.94,ESE,109,5.0,9.0,63,0.00,,---,0.14,VWS V14.01,2014-04-18 18:26:00,
2014-04-18 14:31:00,88.0,72.9,29.94,SE,136,1.0,9.0,61,0.00,,---,0.14,VWS V14.01,2014-04-18 18:31:00,
2014-04-18 14:37:00,88.0,73.4,29.94,SE,125,10.0,10.0,62,0.00,,---,0.14,VWS V14.01,2014-04-18 18:37:00,
2014-04-18 14:42:00,87.6,73.5,29.94,ESE,107,3.0,11.0,63,0.00,,---,0.14,VWS V14.01,2014-04-18 18:42:00,
2014-04-18 14:47:00,87.8,73.2,29.94,SE,130,6.0,11.0,62,0.00,,---,0.14,VWS V14.01,2014-04-18 18:47:00,
2014-04-18 14:52:00,87.6,72.5,29.94,SE,136,0.0,11.0,61,0.00,,---,0.14,VWS V14.01,2014-04-18 18:52:00,
2014-04-18 14:57:00,87.6,73.5,29.94,SSW,194,4.0,11.0,63,0.00,,---,0.14,VWS V14.01,2014-04-18 18:57:00,
2014-04-18 15:02:00,87.4,74.2,29.94,SE,140,3.0,11.0,65,0.00,,---,0.14,VWS V14.01,2014-04-18 19:02:00,
2014-04-18 15:07:00,87.4,72.8,29.93,SE,134,2.0,11.0,62,0.00,,---,0.14,VWS V14.01,2014-04-18 19:07:00,
2014-04-18 15:12:00,87.2,72.6,29.93,SE,125,3.0,10.0,62,0.00,,---,0.14,VWS V14.01,2014-04-18 19:12:00,
2014-04-18 15:17:00,86.7,72.1,29.93,SE,135,6.0,13.0,62,0.00,,---,0.14,VWS V14.01,2014-04-18 19:17:00,
2014-04-18 15:22:00,86.1,72.5,29.92,ESE,115,1.0,13.0,64,0.00,,---,0.14,VWS V14.01,2014-04-18 19:22:00,
2014-04-18 15:27:00,85.9,72.3,29.92,SE,130,2.0,13.0,64,0.00,,---,0.14,VWS V14.01,2014-04-18 19:27:00,
2014-04-18 15:32:00,86.1,73.0,29.92,SE,126,2.0,13.0,65,0.00,,---,0.14,VWS V14.01,2014-04-18 19:32:00,
2014-04-18 15:37:00,86.3,72.7,29.92,ESE,107,6.0,6.0,64,0.00,,---,0.14,VWS V14.01,2014-04-18 19:37:00,
2014-04-18 15:42:00,86.1,72.5,29.92,SE,128,6.0,16.0,64,0.00,,---,0.14,VWS V14.01,2014-04-18 19:42:00,
2014-04-18 15:47:00,86.1,72.5,29.92,ESE,112,3.0,16.0,64,0.00,,---,0.14,VWS V14.01,2014-04-18 19:47:00,
2014-04-18 15:52:00,85.9,72.3,29.91,SE,130,4.0,16.0,64,0.00,,---,0.14,VWS V14.01,2014-04-18 19:52:00,
2014-04-18 15:57:00,85.9,72.8,29.91,ESE,120,6.0,16.0,65,0.00,,---,0.14,VWS V14.01,2014-04-18 19:57:00,
2014-04-18 16:02:00,86.1,72.5,29.91,SE,128,4.0,16.0,64,0.00,,---,0.14,VWS V14.01,2014-04-18 20:02:00,
2014-04-18 16:07:00,85.7,72.1,29.91,SE,124,4.0,9.0,64,0.00,,---,0.14,VWS V14.01,2014-04-18 20:07:00,
2014-04-18 16:12:00,85.7,73.0,29.91,SE,129,2.0,9.0,66,0.00,,---,0.14,VWS V14.01,2014-04-18 20:12:00,
2014-04-18 16:18:00,86.1,73.4,29.91,SE,146,6.0,9.0,66,0.00,,---,0.14,VWS V14.01,2014-04-18 20:18:00,
2014-04-18 16:23:00,86.3,72.7,29.91,SE,132,1.0,11.0,64,0.00,,---,0.14,VWS V14.01,2014-04-18 20:23:00,
2014-04-18 16:28:00,86.1,73.4,29.91,SE,136,1.0,11.0,66,0.00,,---,0.14,VWS V14.01,2014-04-18 20:28:00,
2014-04-18 16:33:00,85.7,73.9,29.91,SSE,161,5.0,11.0,68,0.00,,---,0.14,VWS V14.01,2014-04-18 20:33:00,
2014-04-18 16:38:00,84.1,75.3,29.92,SE,144,3.0,3.0,75,0.07,,---,0.21,VWS V14.01,2014-04-18 20:38:00,
2014-04-18 16:43:00,82.6,75.1,29.92,SE,134,0.0,5.0,78,0.07,,---,0.21,VWS V14.01,2014-04-18 20:43:00,
2014-04-18 16:48:00,81.1,75.1,29.92,SE,134,3.0,5.0,82,0.07,,---,0.21,VWS V14.01,2014-04-18 20:48:00,
2014-04-18 16:53:00,79.9,74.3,29.91,SE,134,2.0,5.0,83,0.07,,---,0.21,VWS V14.01,2014-04-18 20:53:00,
2014-04-18 16:58:00,79.0,74.5,29.91,SE,135,1.0,5.0,86,0.07,,---,0.21,VWS V14.01,2014-04-18 20:58:00,
2014-04-18 17:03:00,78.6,75.4,29.91,SE,136,0.0,5.0,90,0.07,,---,0.21,VWS V14.01,2014-04-18 21:03:00,
2014-04-18 17:08:00,78.5,75.3,29.91,SE,136,2.0,3.0,90,0.07,,---,0.21,VWS V14.01,2014-04-18 21:08:00,
2014-04-18 17:13:00,78.5,76.0,29.91,SE,136,0.0,3.0,92,0.07,,---,0.21,VWS V14.01,2014-04-18 21:13:00,
2014-04-18 17:18:00,78.8,76.6,29.91,SE,136,0.0,3.0,93,0.07,,---,0.21,VWS V14.01,2014-04-18 21:18:00,
2014-04-18 17:23:00,79.4,77.5,29.90,SE,134,1.0,4.0,94,0.07,,---,0.21,VWS V14.01,2014-04-18 21:23:00,
2014-04-18 17:28:00,79.8,77.3,29.90,SE,130,9.0,9.0,92,0.07,,---,0.21,VWS V14.01,2014-04-18 21:28:00,
2014-04-18 17:33:00,79.9,76.4,29.90,SE,138,0.0,9.0,89,0.07,,---,0.21,VWS V14.01,2014-04-18 21:33:00,
2014-04-18 17:38:00,80.1,75.9,29.89,SE,136,1.0,7.0,87,0.00,,---,0.21,VWS V14.01,2014-04-18 21:38:00,
2014-04-18 17:43:00,80.1,75.5,29.89,ESE,109,2.0,7.0,86,0.00,,---,0.21,VWS V14.01,2014-04-18 21:43:00,
2014-04-18 17:48:00,80.1,75.5,29.89,ESE,108,1.0,7.0,86,0.00,,---,0.21,VWS V14.01,2014-04-18 21:48:00,
2014-04-18 17:54:00,80.3,76.1,29.88,SE,132,4.0,7.0,87,0.00,,---,0.21,VWS V14.01,2014-04-18 21:54:00,
2014-04-18 17:59:00,80.9,76.0,29.88,SE,130,0.0,7.0,85,0.00,,---,0.21,VWS V14.01,2014-04-18 21:59:00,
2014-04-18 18:04:00,81.1,75.1,29.88,ESE,114,5.0,7.0,82,0.00,,---,0.21,VWS V14.01,2014-04-18 22:04:00,
2014-04-18 18:09:00,81.2,75.2,29.88,SE,132,0.0,4.0,82,0.00,,---,0.21,VWS V14.01,2014-04-18 22:09:00,
2014-04-18 18:14:00,81.4,75.0,29.88,SE,136,1.0,5.0,81,0.00,,---,0.21,VWS V14.01,2014-04-18 22:14:00,
2014-04-18 18:19:00,81.4,75.0,29.88,SE,131,9.0,9.0,81,0.00,,---,0.21,VWS V14.01,2014-04-18 22:19:00,
2014-04-18 18:24:00,81.2,74.4,29.88,SSE,148,5.0,9.0,80,0.00,,---,0.21,VWS V14.01,2014-04-18 22:24:00,
2014-04-18 18:29:00,81.1,74.7,29.88,SE,145,2.0,9.0,81,0.00,,---,0.21,VWS V14.01,2014-04-18 22:29:00,
2014-04-18 18:34:00,81.1,74.7,29.88,SSE,154,4.0,9.0,81,0.00,,---,0.21,VWS V14.01,2014-04-18 22:34:00,
2014-04-18 18:39:00,80.7,74.3,29.88,SE,142,3.0,5.0,81,0.00,,---,0.21,VWS V14.01,2014-04-18 22:39:00,
2014-04-18 18:44:00,80.5,74.1,29.88,ESE,107,0.0,9.0,81,0.00,,---,0.21,VWS V14.01,2014-04-18 22:44:00,
2014-04-18 18:49:00,80.5,74.5,29.88,ESE,119,2.0,9.0,82,0.00,,---,0.21,VWS V14.01,2014-04-18 22:49:00,
2014-04-18 18:54:00,80.3,74.3,29.88,SE,125,2.0,9.0,82,0.00,,---,0.21,VWS V14.01,2014-04-18 22:54:00,
2014-04-18 18:59:00,80.3,74.3,29.88,SE,132,2.0,9.0,82,0.00,,---,0.21,VWS V14.01,2014-04-18 22:59:00,
2014-04-18 19:04:00,80.1,74.1,29.88,SE,132,0.0,9.0,82,0.00,,---,0.21,VWS V14.01,2014-04-18 23:04:00,
2014-04-18 19:09:00,80.1,74.1,29.88,SE,132,4.0,4.0,82,0.00,,---,0.21,VWS V14.01,2014-04-18 23:09:00,
2014-04-18 19:15:00,80.1,74.1,29.88,SE,132,2.0,4.0,82,0.00,,---,0.21,VWS V14.01,2014-04-18 23:15:00,
2014-04-18 19:20:00,79.9,73.9,29.88,SE,141,0.0,5.0,82,0.00,,---,0.21,VWS V14.01,2014-04-18 23:20:00,
2014-04-18 19:25:00,79.8,73.8,29.88,SSE,149,0.0,5.0,82,0.00,,---,0.21,VWS V14.01,2014-04-18 23:25:00,
2014-04-18 19:30:00,79.8,73.8,29.88,SE,145,1.0,7.0,82,0.00,,---,0.21,VWS V14.01,2014-04-18 23:30:00,
2014-04-18 19:35:00,79.6,73.6,29.88,SE,142,0.0,7.0,82,0.00,,---,0.21,VWS V14.01,2014-04-18 23:35:00,
2014-04-18 19:40:00,79.4,73.8,29.88,SE,144,0.0,2.0,83,0.00,,---,0.21,VWS V14.01,2014-04-18 23:40:00,
2014-04-18 19:45:00,79.4,73.8,29.88,SE,144,3.0,3.0,83,0.00,,---,0.21,VWS V14.01,2014-04-18 23:45:00,
2014-04-18 19:50:00,79.2,73.6,29.88,SE,140,3.0,5.0,83,0.00,,---,0.21,VWS V14.01,2014-04-18 23:50:00,
2014-04-18 19:55:00,79.0,73.4,29.88,SE,140,3.0,5.0,83,0.00,,---,0.21,VWS V14.01,2014-04-18 23:55:00,
2014-04-18 20:00:00,79.0,73.4,29.88,SE,142,0.0,5.0,83,0.00,,---,0.21,VWS V14.01,2014-04-19 00:00:00,
2014-04-18 20:05:00,78.8,73.6,29.88,SE,143,4.0,5.0,84,0.00,,---,0.21,VWS V14.01,2014-04-19 00:05:00,
2014-04-18 20:10:00,78.6,73.4,29.88,SE,143,0.0,1.0,84,0.00,,---,0.21,VWS V14.01,2014-04-19 00:10:00,
2014-04-18 20:15:00,78.6,73.7,29.88,SE,144,1.0,3.0,85,0.00,,---,0.21,VWS V14.01,2014-04-19 00:15:00,
2014-04-18 20:20:00,78.5,73.6,29.88,SE,144,0.0,4.0,85,0.00,,---,0.21,VWS V14.01,2014-04-19 00:20:00,
2014-04-18 20:25:00,78.5,73.6,29.89,SE,144,0.0,4.0,85,0.00,,---,0.21,VWS V14.01,2014-04-19 00:25:00,
2014-04-18 20:30:00,78.3,73.8,29.89,SE,144,0.0,4.0,86,0.00,,---,0.21,VWS V14.01,2014-04-19 00:30:00,
2014-04-18 20:35:00,78.3,73.8,29.89,SE,144,0.0,4.0,86,0.00,,---,0.21,VWS V14.01,2014-04-19 00:35:00,
2014-04-18 20:40:00,78.1,73.9,29.89,SE,144,0.0,2.0,87,0.00,,---,0.21,VWS V14.01,2014-04-19 00:40:00,
2014-04-18 20:45:00,78.1,73.9,29.89,SE,144,0.0,3.0,87,0.00,,---,0.21,VWS V14.01,2014-04-19 00:45:00,
2014-04-18 20:50:00,77.9,74.1,29.89,SE,144,3.0,3.0,88,0.00,,---,0.21,VWS V14.01,2014-04-19 00:50:00,
2014-04-18 20:56:00,77.9,74.1,29.90,SE,144,0.0,3.0,88,0.00,,---,0.21,VWS V14.01,2014-04-19 00:56:00,
2014-04-18 21:01:00,77.7,73.9,29.90,SE,144,0.0,3.0,88,0.00,,---,0.21,VWS V14.01,2014-04-19 01:01:00,
2014-04-18 21:06:00,77.7,74.2,29.90,SE,144,0.0,3.0,89,0.00,,---,0.21,VWS V14.01,2014-04-19 01:06:00,
2014-04-18 21:11:00,77.7,74.2,29.90,SE,144,0.0,4.0,89,0.00,,---,0.21,VWS V14.01,2014-04-19 01:11:00,
2014-04-18 21:16:00,77.6,74.1,29.90,SE,144,0.0,4.0,89,0.00,,---,0.21,VWS V14.01,2014-04-19 01:16:00,
2014-04-18 21:21:00,77.6,74.4,29.90,SE,144,0.0,4.0,90,0.00,,---,0.21,VWS V14.01,2014-04-19 01:21:00,
2014-04-18 21:26:00,77.6,74.4,29.90,SE,144,1.0,4.0,90,0.00,,---,0.21,VWS V14.01,2014-04-19 01:26:00,
2014-04-18 21:31:00,77.4,74.2,29.90,SE,144,0.0,4.0,90,0.00,,---,0.21,VWS V14.01,2014-04-19 01:31:00,
2014-04-18 21:36:00,77.4,74.2,29.91,SE,144,0.0,4.0,90,0.00,,---,0.21,VWS V14.01,2014-04-19 01:36:00,
2014-04-18 21:41:00,77.4,74.2,29.91,SE,144,0.0,2.0,90,0.00,,---,0.21,VWS V14.01,2014-04-19 01:41:00,
2014-04-18 21:46:00,77.2,74.4,29.91,SE,144,0.0,2.0,91,0.00,,---,0.21,VWS V14.01,2014-04-19 01:46:00,
2014-04-18 21:51:00,77.2,74.4,29.91,SE,144,1.0,2.0,91,0.00,,---,0.21,VWS V14.01,2014-04-19 01:51:00,
2014-04-18 21:56:00,77.0,74.2,29.91,SE,144,0.0,2.0,91,0.00,,---,0.21,VWS V14.01,2014-04-19 01:56:00,
2014-04-18 22:01:00,77.0,74.5,29.91,SE,144,3.0,3.0,92,0.00,,---,0.21,VWS V14.01,2014-04-19 02:01:00,
2014-04-18 22:06:00,77.0,74.5,29.91,SE,144,0.0,3.0,92,0.00,,---,0.21,VWS V14.01,2014-04-19 02:06:00,
2014-04-18 22:11:00,76.8,74.3,29.91,SE,144,0.0,2.0,92,0.00,,---,0.21,VWS V14.01,2014-04-19 02:11:00,
2014-04-18 22:16:00,76.8,74.3,29.91,SE,144,1.0,4.0,92,0.00,,---,0.21,VWS V14.01,2014-04-19 02:16:00,
2014-04-18 22:21:00,76.8,74.6,29.91,SE,144,2.0,4.0,93,0.00,,---,0.21,VWS V14.01,2014-04-19 02:21:00,
2014-04-18 22:26:00,76.8,74.6,29.91,SE,144,2.0,4.0,93,0.00,,---,0.21,VWS V14.01,2014-04-19 02:26:00,
2014-04-18 22:31:00,76.8,74.6,29.91,SE,144,2.0,4.0,93,0.00,,---,0.21,VWS V14.01,2014-04-19 02:31:00,
2014-04-18 22:36:00,76.8,74.6,29.90,SE,143,2.0,5.0,93,0.00,,---,0.21,VWS V14.01,2014-04-19 02:36:00,
2014-04-18 22:41:00,76.8,74.9,29.90,SE,143,1.0,4.0,94,0.00,,---,0.21,VWS V14.01,2014-04-19 02:41:00,
2014-04-18 22:46:00,76.8,74.9,29.90,SE,143,1.0,4.0,94,0.00,,---,0.21,VWS V14.01,2014-04-19 02:46:00,
2014-04-18 22:52:00,76.7,74.8,29.90,SE,143,0.0,4.0,94,0.00,,---,0.21,VWS V14.01,2014-04-19 02:52:00,